sat.trackr.live / text

‹ back to catalog

STARLINK-3582

NORAD 51873 · 2022-022X

PAYLOAD ACTIVE UNKNOWN

§ Identity

Operator
Country
US
Launch date
2022-03-03
Launch site
AFETR
Launch vehicle
Mass (kg)
RCS (m²)

Purposes: comms

External: N2YO · Heavens-Above · Gunter

§ Orbital elements

Epoch: 2026-05-25T01:43:47.501184Z

Period
94.67 min
Inclination
53.2164°
Eccentricity
0.0005019
Mean motion
15.21009739 rev/d
Perigee alt
499.3 km
Apogee alt
506.2 km
Semi-major
6,880.9 km
B*
1.0739e-3
RAAN
16.7194°
Arg perigee
101.1119°
Mean anomaly
259.0443°
Rev number
23,478

§ Raw data

STARLINK-35821 51873U 22022X   26145.07207756  .00023878  00000+0  10739-2 0  99932 51873  53.2164  16.7194 0005019 101.1119 259.0443 15.21009739234782

JSON: /api/v1/satellites/51873 · /tle

For live sub-satellite position, see the globe view (requires WebGL).

§ Visibility from observer

Set your observer location to see the next 7 days of passes ≥ 10°. The values pass through the URL so the page stays shareable.

No JS? Fill the form by hand. The geolocation button needs JavaScript.